Погода в Колыоне

Россия / Кемеровская область (Кузбасс)     56°28′26″N   86°33′19″E
темп.,
°C
ветер,
м/с
пор.,
м/с
влажн.,
%
обл.,
%
осадки,
мм/ч
давл.,
гПа
погр.,
м
26 февраля, пт
пт2601:00−22юз3996100 0.2 1020930
04:00−22ююз31194100 0.1 1021586
07:00−22юз51091100 0.1 1023832
10:00−23юз51090100 0.0 10241198
13:00−21юз61085100 0.1 10251256
16:00−22юз61188100 0.1 10271305
19:00−24зюз5993100 0.2 1029871
22:00−27юз4119499 0.0 1031397
27 февраля, сб
сб2701:00−27юз4109499 0.0 1033530
04:00−27юз41095100 0.1 1033580
07:00−26юз41095100 0.2 1034582
10:00−26юз51093100 0.1 1035631
13:00−23зюз5891100 0.2 1035731
16:00−22зюз5890100 0.1 1035731
19:00−23юз4994100 0.1 1036580
22:00−25юз399699 0.0 1037325
28 февраля, вс
вс2801:00−26юз379798 0.1 1038221
04:00−26юз389795 0.0 1038249
07:00−28юз379795 0.1 1039132
10:00−27ююз379568 0.0 1039234
13:00−22ююз359345 0.0 1037345
16:00−18ю248691 0.0 1035515
19:00−22вюв229376 0.0 103420
22:00−22вюв359588 0.0 103282
1 марта, пн
пн101:00−20в479794 0.0 1029144
04:00−18в4996100 0.2 1025228
07:00−16в51096100 0.7 1022305
10:00−14в5995100 0.9 1019321
13:00−12в5894100 1.4 1017319
16:00−11в5994100 0.4 1015333
19:00−11в61194100 1.1 1013386
22:00−11в61294100 1.3 1012407
2 марта, вт
вт201:00−11всв5995100 2.9 1010303
04:00−12всв4795100 1.0 1008202
07:00−12св3596100 2.6 1008151
10:00−12с2295100 0.8 1008141
13:00−9з249399 1.1 1009357
16:00−6з3694100 0.4 1010545
19:00−8зсз2696100 0.9 1011275
22:00−10з2496100 0.8 1013108